Flag for U.S.A. Weather past 2 weeks in Paradise, California, U.S.A.

Now
77 °F

Clear.


Feels Like: 77 °F
Forecast: 69 / 94 °F
Wind: No wind

Location: Chico Municipal

Current Time: Jul 26, 2014 at 2:39:19 AM

Latest Report: Jul 26, 2014 at 2:15 AM


Visibility: 10 mi

Pressure: 29.84 "Hg

Humidity: 22%

Dew point: 36 °F

Location of ParadiseLocation

Historic Weather in Paradise — Graph

°F

Paradise temperature yesterday

Maximum temperature yesterday: 100 °F (at 4:54 PM)
Minimum temperature yesterday: 63 °F (at 6:15 AM)
Average temperature yesterday: 81 °F

Past Weeks' High & Low Weather Summary

 TemperatureHumidityPressure
High106 °F (Jul 14, 4:53 PM)78% (Jul 11, 6:15 AM)30.13 "Hg (Jul 11, 6:15 AM)
Low63 °F (Jul 23, 5:35 AM)9% (Jul 25, 6:55 PM)29.77 "Hg (Jul 14, 4:53 PM)
Average79 °F43%29.91 "Hg
* Reported Jul 11 1:15 AM — Jul 26 1:35 AM, Paradise, Weather by CustomWeather, © 2014

Note: Actual official high and low records may vary slightly from our data, if they occured in-between our weather recording intervals... More about our weather records

Advertising

Paradise weather history for previous 24 hours

 ConditionsComfort  
Time TempWeatherWind HumidityBarometerVisibility
1:35 AM
Jul 26
82 °FClear.6 mph17%29.84 "Hg10 mi
1:15 AM81 °FClear.7 mph20%29.84 "Hg10 mi
12:55 AM79 °FClear.No wind21%29.84 "Hg10 mi
12:35 AM81 °FClear.No wind20%29.84 "Hg10 mi
12:15 AM82 °FClear.No wind19%29.83 "Hg10 mi
11:55 PM
Jul 25
82 °FClear.No wind19%29.83 "Hg10 mi
11:35 PM84 °FClear.8 mph18%29.82 "Hg10 mi
11:15 PM84 °FClear.8 mph18%29.82 "Hg10 mi
10:55 PM82 °FClear.6 mph20%29.82 "Hg10 mi
10:35 PM84 °FClear.5 mph19%29.82 "Hg10 mi
10:15 PM86 °FClear.7 mph18%29.81 "Hg10 mi
9:55 PM86 °FClear.5 mph18%29.81 "Hg10 mi
9:35 PM86 °FClear.6 mph18%29.80 "Hg10 mi
9:15 PM90 °FSunny.6 mph15%29.80 "Hg10 mi
8:55 PM93 °FSunny.No wind14%29.79 "Hg10 mi
8:35 PM93 °FSunny.No wind14%29.79 "Hg10 mi
7:55 PM95 °FSunny.5 mph13%29.78 "Hg10 mi
7:15 PM99 °FSunny.7 mph9%29.78 "Hg10 mi
6:55 PM99 °FSunny.8 mph9%29.77 "Hg10 mi
5:57 PM99 °FSunny.7 mph10%29.78 "Hg80 mi
4:54 PM100 °FSunny.7 mph10%29.79 "Hg80 mi
3:58 PM99 °FSunny.8 mph10%29.81 "Hg80 mi
2:48 PM97 °FSunny.7 mph13%29.83 "Hg80 mi
1:52 PM95 °FSunny.8 mph15%29.84 "Hg80 mi
12:50 PM91 °FSunny.7 mph20%29.85 "Hg80 mi
11:53 AM90 °FPassing clouds.6 mph20%29.86 "Hg80 mi
10:55 AM86 °FSunny.6 mph20%29.87 "Hg80 mi
9:55 AM82 °FSunny.6 mph23%29.87 "Hg80 mi
8:50 AM79 °FSunny.6 mph23%29.87 "Hg80 mi
6:50 AM68 °FClear.6 mph30%29.85 "Hg80 mi
6:35 AM64 °FClear.3 mph37%29.85 "Hg10 mi
6:15 AM63 °FClear.No wind39%29.84 "Hg10 mi
5:35 AM68 °FClear.No wind30%29.83 "Hg10 mi
5:15 AM66 °FClear.No wind32%29.83 "Hg10 mi
4:55 AM68 °FClear.No wind30%29.83 "Hg10 mi
4:35 AM68 °FClear.5 mph30%29.82 "Hg10 mi
4:15 AM68 °FClear.3 mph30%29.82 "Hg10 mi
3:55 AM68 °FClear.No wind30%29.82 "Hg10 mi
3:35 AM68 °FClear.No wind30%29.82 "Hg10 mi
3:15 AM68 °FClear.No wind26%29.82 "Hg10 mi
2:55 AM72 °FClear.No wind23%29.82 "Hg10 mi
2:35 AM72 °FClear.No wind23%29.82 "Hg10 mi
2:15 AM73 °FClear.3 mph22%29.82 "Hg10 mi
Weather by CustomWeather, © 2014

See weather overviewHow to use our weather pages